Weather History for Kirksville, MO

Change the Weather History Date:

Friday, January 4, 2013

  Actual Average Record
Temperature  
Mean Temperature 22 °F 26 °F  
Max Temperature 36 °F 35 °F 65 °F (1939)
Min Temperature 8 °F 17 °F -16 °F (1919)
Degree Days  
Heating Degree Days 43 39  
Month to date heating degree days 186 156  
Since 1 July heating degree days 2428 2499  
Cooling Degree Days 0 0  
Month to date cooling degree days 0 0  
Year to date cooling degree days 0 0  
Moisture  
Dew Point 17 °F    
Average Humidity 74    
Maximum Humidity 88    
Minimum Humidity 59    
Precipitation  
Precipitation 0.00 in 0.04 in 1.00 in (1922)
Month to date precipitation 0.00 0.14  
Year to date precipitation 0.00 0.14  
Sea Level Pressure  
Sea Level Pressure 30.35 in    
Wind  
Wind Speed 7 mph (SW)    
Max Wind Speed 17 mph    
Max Gust Speed 22 mph    
Visibility 9 miles    
Events      
T = Trace of Precipitation, MM = Missing Value Source: NWS Daily Summary

Daily Weather History Graph

Daily Weather History Graph

Search for Another Location

Airport:

Trip Planner

Search our weather history database for the weather conditions in past years. The results will help you decide how hot, cold, wet, or windy it might be!

Date:

Astronomy

Jan. 04, 2013 Rise Set
Actual Time 7:32 AM CST 4:58 PM CST
Civil Twilight 7:02 AM CST 5:28 PM CST
Nautical Twilight 6:28 AM CST 6:02 PM CST
Astronomical Twilight 5:55 AM CST 6:35 PM CST
Moon No Moon Rise 11:15 AM CST (1/4)
Length of Visible Light 10h 26m
Length of Day
9h 25m
Waning Gibbous, 55% of the Moon is Illuminated
Jan 4
Waning Gibbous
Jan 4
Last Quarter
Jan 11
New
Jan 18
First Quarter
Jan 26
Full

Hourly Weather History & Observations

Time (CST) Temp. Windchill Dew Point Humidity Pressure Visibility Wind Dir Wind Speed Gust Speed Precip Events Conditions
12:55 AM 10.0 °F 0.4 °F 7.0 °F 87% 30.41 in 10.0 mi SSW 5.8 mph - N/A   Clear
1:55 AM 14.0 °F 6.5 °F 10.0 °F 84% 30.40 in 10.0 mi SW 4.6 mph - N/A   Clear
2:55 AM 14.0 °F 3.9 °F 10.0 °F 84% 30.40 in 10.0 mi SW 6.9 mph - N/A   Clear
3:55 AM 14.0 °F 6.5 °F 10.0 °F 84% 30.40 in 10.0 mi WSW 4.6 mph - N/A   Clear
4:55 AM 12.0 °F 4.1 °F 8.1 °F 84% 30.39 in 8.0 mi SW 4.6 mph - N/A   Clear
5:55 AM 12.0 °F 1.5 °F 9.0 °F 88% 30.39 in 6.0 mi SW 6.9 mph - N/A   Clear
6:55 AM 14.0 °F 3.9 °F 10.9 °F 88% 30.38 in 7.0 mi SW 6.9 mph - N/A   Clear
7:55 AM 16.0 °F 6.3 °F 12.9 °F 88% 30.37 in 5.0 mi SW 6.9 mph - N/A   Clear
8:55 AM 19.9 °F 10.1 °F 16.0 °F 85% 30.38 in 5.0 mi SW 8.1 mph - N/A   Clear
9:55 AM 25.0 °F 15.5 °F 19.0 °F 78% 30.40 in 8.0 mi WSW 9.2 mph - N/A   Clear
10:55 AM 30.0 °F 21.1 °F 21.0 °F 69% 30.39 in 10.0 mi WSW 10.4 mph - N/A   Clear
11:55 AM 32.0 °F 24.2 °F 21.9 °F 66% 30.37 in 10.0 mi SW 9.2 mph - N/A   Clear
12:55 PM 34.0 °F 25.5 °F 21.9 °F 61% 30.34 in 10.0 mi WSW 11.5 mph 20.7 mph N/A   Clear
1:55 PM 35.1 °F 26.9 °F 24.1 °F 64% 30.31 in 10.0 mi SW 11.5 mph - N/A   Clear
2:55 PM 36.0 °F 28.0 °F 23.0 °F 59% 30.30 in 10.0 mi SW 11.5 mph 20.7 mph N/A   Clear
3:55 PM 35.1 °F 27.9 °F 24.1 °F 64% 30.30 in 10.0 mi SW 9.2 mph - N/A   Clear
4:55 PM 34.0 °F 29.8 °F 23.0 °F 64% 30.30 in 10.0 mi WSW 4.6 mph - N/A   Clear
5:55 PM 30.0 °F 24.1 °F 21.9 °F 72% 30.32 in 10.0 mi SSW 5.8 mph - N/A   Clear
6:55 PM 24.1 °F 16.0 °F 19.9 °F 84% 30.32 in 10.0 mi South 6.9 mph - N/A   Clear
7:55 PM 26.6 °F 19.1 °F 21.2 °F 80% 30.26 in 10.0 mi SSW 6.9 mph - N/A   Clear
8:55 PM 27.0 °F 20.5 °F 21.0 °F 78% 30.30 in 10.0 mi SSW 5.8 mph - N/A   Clear
9:55 PM 27.0 °F 23.0 °F 21.9 °F 81% 30.30 in 10.0 mi SW 3.5 mph - N/A   Clear
10:55 PM 26.1 °F 19.4 °F 21.9 °F 84% 30.29 in 10.0 mi SW 5.8 mph - N/A   Clear
11:55 PM 25.0 °F 18.1 °F 19.9 °F 81% 30.27 in 10.0 mi SSW 5.8 mph - N/A   Clear